status,avgMeasuredTime,avgSpeed,extID,medianMeasuredTime,TIMESTAMP,vehicleCount,_id,REPORT_ID
OK,55,36,844,55,2014-08-01T07:55:00,2,20746568,188013
OK,62,32,844,62,2014-08-01T08:00:00,4,20746899,188013
OK,104,19,844,104,2014-08-01T08:05:00,2,20747348,188013
OK,108,18,844,108,2014-08-01T08:10:00,2,20747721,188013
OK,68,29,844,68,2014-08-01T08:15:00,4,20748170,188013
OK,68,29,844,68,2014-08-01T08:20:00,4,20748619,188013
OK,49,41,844,49,2014-08-01T08:25:00,2,20749068,188013
OK,45,44,844,45,2014-08-01T08:30:00,2,20749517,188013
OK,48,42,844,48,2014-08-01T08:35:00,2,20749966,188013
OK,44,45,844,44,2014-08-01T08:40:00,1,20750415,188013
OK,48,42,844,48,2014-08-01T08:45:00,1,20750864,188013
OK,60,33,844,60,2014-08-01T08:50:00,4,20751313,188013
OK,72,28,844,72,2014-08-01T08:55:00,3,20751762,188013
OK,49,41,844,49,2014-08-01T09:00:00,1,20752211,188013
OK,48,42,844,48,2014-08-01T09:05:00,2,20752660,188013
OK,53,38,844,53,2014-08-01T09:10:00,2,20753109,188013
OK,58,34,844,58,2014-08-01T09:15:00,2,20753558,188013
OK,90,22,844,90,2014-08-01T09:20:00,3,20754007,188013
OK,90,22,844,90,2014-08-01T09:25:00,3,20754456,188013
OK,69,29,844,69,2014-08-01T09:30:00,3,20754905,188013
OK,69,29,844,69,2014-08-01T09:35:00,3,20755354,188013
OK,62,32,844,62,2014-08-01T09:40:00,2,20755803,188013
OK,60,33,844,60,2014-08-01T09:45:00,2,20756252,188013
OK,73,27,844,73,2014-08-01T09:50:00,2,20756701,188013
OK,70,28,844,70,2014-08-01T09:55:00,4,20757150,188013
OK,57,35,844,57,2014-08-01T10:00:00,5,20757599,188013
OK,57,35,844,57,2014-08-01T10:05:00,3,20758048,188013
OK,70,28,844,70,2014-08-01T10:10:00,3,20758497,188013
OK,53,38,844,53,2014-08-01T10:15:00,3,20758946,188013
OK,64,31,844,64,2014-08-01T10:20:00,5,20759395,188013
OK,66,30,844,66,2014-08-01T10:25:00,3,20759844,188013
OK,65,31,844,65,2014-08-01T10:30:00,3,20760293,188013
OK,61,33,844,61,2014-08-01T10:35:00,4,20760742,188013
OK,51,39,844,51,2014-08-01T10:40:00,2,20761191,188013
OK,46,43,844,46,2014-08-01T10:45:00,1,20761640,188013
OK,102,19,844,102,2014-08-01T10:50:00,2,20762089,188013
OK,105,19,844,105,2014-08-01T10:55:00,2,20762538,188013
OK,53,38,844,53,2014-08-01T11:00:00,1,20762987,188013
OK,64,31,844,64,2014-08-01T11:05:00,1,20763436,188013
OK,73,27,844,73,2014-08-01T11:10:00,2,20763885,188013
OK,83,24,844,83,2014-08-01T11:15:00,1,20764333,188013
OK,83,24,844,83,2014-08-01T11:20:00,0,20764782,188013
OK,59,34,844,59,2014-08-01T11:25:00,1,20765231,188013
OK,59,34,844,59,2014-08-01T11:30:00,1,20765680,188013
OK,63,32,844,63,2014-08-01T11:35:00,1,20766129,188013
OK,62,32,844,62,2014-08-01T11:40:00,5,20766578,188013
OK,52,38,844,52,2014-08-01T11:45:00,3,20767027,188013
OK,63,32,844,63,2014-08-01T11:50:00,2,20767476,188013
OK,63,32,844,63,2014-08-01T11:55:00,2,20767925,188013
OK,40,50,844,40,2014-08-01T12:00:00,1,20768374,188013
OK,40,50,844,40,2014-08-01T12:05:00,1,20768823,188013
OK,65,31,844,65,2014-08-01T12:10:00,4,20769272,188013
OK,64,31,844,64,2014-08-01T12:15:00,5,20769721,188013
OK,61,33,844,61,2014-08-01T12:20:00,5,20770170,188013
OK,86,23,844,86,2014-08-01T12:25:00,5,20770619,188013
OK,76,26,844,76,2014-08-01T12:30:00,1,20771068,188013
OK,76,26,844,76,2014-08-01T12:35:00,1,20771517,188013
OK,40,50,844,40,2014-08-01T12:40:00,1,20771966,188013
OK,66,30,844,66,2014-08-01T12:45:00,3,20772415,188013
OK,84,24,844,84,2014-08-01T12:50:00,4,20772864,188013
OK,73,27,844,73,2014-08-01T12:55:00,3,20773313,188013
OK,68,29,844,68,2014-08-01T13:00:00,4,20773762,188013
OK,77,26,844,77,2014-08-01T13:05:00,3,20774211,188013
OK,78,25,844,78,2014-08-01T13:10:00,4,20774660,188013
OK,76,26,844,76,2014-08-01T13:15:00,7,20775109,188013
OK,76,26,844,76,2014-08-01T13:20:00,4,20775558,188013
OK,60,33,844,60,2014-08-01T13:25:00,4,20776007,188013
OK,48,42,844,48,2014-08-01T13:30:00,2,20776456,188013
OK,48,42,844,48,2014-08-01T13:35:00,0,20776905,188013
OK,88,22,844,88,2014-08-01T13:40:00,1,20777354,188013
OK,77,26,844,77,2014-08-01T13:45:00,4,20777803,188013
OK,66,30,844,66,2014-08-01T13:50:00,3,20778252,188013
OK,66,30,844,66,2014-08-01T13:55:00,0,20778701,188013
OK,61,33,844,61,2014-08-01T14:00:00,1,20779150,188013
OK,58,34,844,58,2014-08-01T14:05:00,4,20779599,188013
OK,56,36,844,56,2014-08-01T14:10:00,3,20780048,188013
OK,71,28,844,71,2014-08-01T14:15:00,1,20780497,188013
OK,71,28,844,71,2014-08-01T14:20:00,1,20780946,188013
OK,64,31,844,64,2014-08-01T14:25:00,1,20781395,188013
OK,64,31,844,64,2014-08-01T14:30:00,3,20781844,188013
OK,69,29,844,69,2014-08-01T14:35:00,2,20782293,188013
OK,63,32,844,63,2014-08-01T14:40:00,0,20782742,188013
OK,63,32,844,63,2014-08-01T14:45:00,0,20783191,188013
OK,79,25,844,79,2014-08-01T14:50:00,1,20783640,188013
OK,74,27,844,74,2014-08-01T14:55:00,5,20784089,188013
OK,68,29,844,68,2014-08-01T15:00:00,5,20784538,188013
OK,68,29,844,68,2014-08-01T15:05:00,0,20784987,188013
OK,68,29,844,68,2014-08-01T15:10:00,0,20785436,188013
OK,74,27,844,74,2014-08-01T15:15:00,2,20785885,188013
OK,74,27,844,74,2014-08-01T15:20:00,2,20786334,188013
OK,87,23,844,87,2014-08-01T15:25:00,1,20786783,188013
OK,73,27,844,73,2014-08-01T15:30:00,2,20787232,188013
OK,60,33,844,60,2014-08-01T15:35:00,1,20787681,188013
OK,60,33,844,60,2014-08-01T15:40:00,0,20788130,188013
OK,69,29,844,69,2014-08-01T15:45:00,1,20788579,188013
OK,67,30,844,67,2014-08-01T15:50:00,2,20789028,188013
OK,66,30,844,66,2014-08-01T15:55:00,3,20789477,188013
OK,70,28,844,70,2014-08-01T16:00:00,2,20789926,188013
OK,70,28,844,70,2014-08-01T16:05:00,0,20790375,188013
OK,70,28,844,70,2014-08-01T16:10:00,0,20790824,188013
OK,70,28,844,70,2014-08-01T16:15:00,2,20791273,188013
OK,88,22,844,88,2014-08-01T16:20:00,3,20791722,188013
OK,88,22,844,88,2014-08-01T16:25:00,1,20792171,188013
OK,88,22,844,88,2014-08-01T16:30:00,0,20792620,188013
OK,103,19,844,103,2014-08-01T16:35:00,1,20793069,188013
OK,103,19,844,103,2014-08-01T16:40:00,1,20793518,188013
OK,66,30,844,66,2014-08-01T16:45:00,1,20793967,188013
OK,66,30,844,66,2014-08-01T16:50:00,1,20794416,188013
OK,69,29,844,69,2014-08-01T16:55:00,1,20794865,188013
OK,71,28,844,71,2014-08-01T17:00:00,1,20795314,188013
OK,72,28,844,72,2014-08-01T17:05:00,3,20795763,188013
OK,73,27,844,73,2014-08-01T17:10:00,0,20796212,188013
OK,151,13,844,151,2014-08-01T17:15:00,1,20796661,188013
OK,151,13,844,151,2014-08-01T17:20:00,1,20797110,188013
OK,72,28,844,72,2014-08-01T17:25:00,2,20797559,188013
OK,72,28,844,72,2014-08-01T17:30:00,4,20798008,188013
OK,75,26,844,75,2014-08-01T17:35:00,3,20798457,188013
OK,64,31,844,64,2014-08-01T17:40:00,5,20798906,188013
OK,63,32,844,63,2014-08-01T17:45:00,4,20799355,188013
OK,70,28,844,70,2014-08-01T17:50:00,1,20799804,188013
OK,70,28,844,70,2014-08-01T17:55:00,1,20800253,188013
OK,70,28,844,70,2014-08-01T18:00:00,0,20800702,188013
OK,70,28,844,70,2014-08-01T18:05:00,0,20801151,188013
OK,70,28,844,70,2014-08-01T18:10:00,0,20801600,188013
OK,70,28,844,70,2014-08-01T18:15:00,0,20802049,188013
OK,70,28,844,70,2014-08-01T18:20:00,0,20802498,188013
OK,70,28,844,70,2014-08-01T18:25:00,0,20802947,188013
OK,70,28,844,70,2014-08-01T18:30:00,0,20803396,188013
OK,70,28,844,70,2014-08-01T18:35:00,0,20803845,188013
OK,70,28,844,70,2014-08-01T18:40:00,0,20804294,188013
OK,76,26,844,76,2014-08-01T18:45:00,1,20804743,188013
OK,57,35,844,57,2014-08-01T18:50:00,2,20805192,188013
OK,46,43,844,46,2014-08-01T18:55:00,0,20805641,188013
OK,58,34,844,58,2014-08-01T19:00:00,1,20806090,188013
OK,58,34,844,58,2014-08-01T19:05:00,1,20806539,188013
OK,58,34,844,58,2014-08-01T19:10:00,0,20806988,188013
OK,63,32,844,63,2014-08-01T19:15:00,3,20807437,188013
OK,63,32,844,63,2014-08-01T19:20:00,3,20807886,188013
OK,64,31,844,64,2014-08-01T19:25:00,2,20808335,188013
OK,65,31,844,65,2014-08-01T19:30:00,2,20808784,188013
OK,64,31,844,64,2014-08-01T19:35:00,0,20809233,188013
OK,70,28,844,70,2014-08-01T19:40:00,2,20809682,188013
OK,70,28,844,70,2014-08-01T19:45:00,2,20810131,188013
OK,59,34,844,59,2014-08-01T19:50:00,1,20810580,188013
OK,59,34,844,59,2014-08-01T19:55:00,1,20811029,188013
OK,87,23,844,87,2014-08-01T22:00:00,0,20816758,188013
OK,87,23,844,87,2014-08-01T22:05:00,0,20817207,188013
OK,37,54,844,37,2014-08-02T00:00:00,0,20823197,188013
OK,37,54,844,37,2014-08-02T00:05:00,0,20823646,188013
OK,37,54,844,37,2014-08-02T00:10:00,0,20824095,188013
OK,37,54,844,37,2014-08-02T00:15:00,0,20824544,188013
OK,37,54,844,37,2014-08-02T00:20:00,0,20824993,188013
OK,37,54,844,37,2014-08-02T00:25:00,0,20825442,188013
OK,37,54,844,37,2014-08-02T00:30:00,0,20825891,188013
OK,37,54,844,37,2014-08-02T00:35:00,0,20826340,188013
OK,37,54,844,37,2014-08-02T00:40:00,0,20826789,188013
OK,37,54,844,37,2014-08-02T00:45:00,0,20827238,188013
OK,37,54,844,37,2014-08-02T00:50:00,0,20827687,188013
OK,37,54,844,37,2014-08-02T00:55:00,0,20828136,188013
OK,37,54,844,37,2014-08-02T01:00:00,0,20828585,188013
OK,37,54,844,37,2014-08-02T01:05:00,0,20829034,188013
OK,37,54,844,37,2014-08-02T01:10:00,0,20829483,188013
OK,37,54,844,37,2014-08-02T01:15:00,0,20829932,188013
OK,37,54,844,37,2014-08-02T01:20:00,0,20830381,188013
OK,36,56,844,36,2014-08-02T01:25:00,1,20830830,188013
OK,36,56,844,36,2014-08-02T01:30:00,0,20831279,188013
OK,36,56,844,36,2014-08-02T01:35:00,0,20831728,188013
OK,36,56,844,36,2014-08-02T01:40:00,0,20832177,188013
OK,36,56,844,36,2014-08-02T01:45:00,0,20832626,188013
OK,36,56,844,36,2014-08-02T01:50:00,0,20833075,188013
OK,36,56,844,36,2014-08-02T01:55:00,0,20833524,188013
OK,36,56,844,36,2014-08-02T02:00:00,0,20833973,188013
OK,36,56,844,36,2014-08-02T02:05:00,0,20834422,188013
OK,36,56,844,36,2014-08-02T02:10:00,0,20834871,188013
OK,36,56,844,36,2014-08-02T02:15:00,0,20835320,188013
OK,36,56,844,36,2014-08-02T02:20:00,0,20835769,188013
OK,36,56,844,36,2014-08-02T02:25:00,0,20836218,188013
OK,36,56,844,36,2014-08-02T02:30:00,0,20836667,188013
OK,36,56,844,36,2014-08-02T02:35:00,0,20837116,188013
OK,36,56,844,36,2014-08-02T02:40:00,0,20837565,188013
OK,36,56,844,36,2014-08-02T02:45:00,0,20838014,188013
OK,36,56,844,36,2014-08-02T02:50:00,0,20838463,188013
OK,36,56,844,36,2014-08-02T02:55:00,0,20838912,188013
OK,36,56,844,36,2014-08-02T03:00:00,0,20839361,188013
OK,36,56,844,36,2014-08-02T03:05:00,0,20839810,188013
OK,36,56,844,36,2014-08-02T03:10:00,0,20840259,188013
OK,36,56,844,36,2014-08-02T03:15:00,0,20840708,188013
OK,36,56,844,36,2014-08-02T03:20:00,0,20841157,188013
OK,36,56,844,36,2014-08-02T03:25:00,0,20841606,188013
OK,36,56,844,36,2014-08-02T03:30:00,0,20842055,188013
OK,36,56,844,36,2014-08-02T03:35:00,0,20842504,188013
OK,36,56,844,36,2014-08-02T03:40:00,0,20842953,188013
OK,37,54,844,37,2014-08-02T03:45:00,2,20843402,188013
OK,38,53,844,38,2014-08-02T03:50:00,1,20843851,188013
OK,38,53,844,38,2014-08-02T03:55:00,1,20844300,188013
OK,101,19,844,101,2014-08-02T06:00:00,0,20851754,188013
OK,101,19,844,101,2014-08-02T06:05:00,0,20852203,188013
OK,101,19,844,101,2014-08-02T06:10:00,0,20852652,188013
OK,101,19,844,101,2014-08-02T06:15:00,0,20853101,188013
OK,101,19,844,101,2014-08-02T06:20:00,0,20853550,188013
OK,21,96,844,21,2014-08-02T06:25:00,1,20853999,188013
OK,21,96,844,21,2014-08-02T06:30:00,1,20854448,188013
OK,21,96,844,21,2014-08-02T06:35:00,0,20854897,188013
OK,21,96,844,21,2014-08-02T06:40:00,0,20855346,188013
OK,74,27,844,74,2014-08-02T06:45:00,1,20855795,188013
OK,61,33,844,61,2014-08-02T06:50:00,3,20856244,188013
OK,56,36,844,56,2014-08-02T06:55:00,2,20856693,188013
OK,61,33,844,61,2014-08-02T07:00:00,0,20857142,188013
OK,54,37,844,54,2014-08-02T07:05:00,2,20857591,188013
OK,54,37,844,54,2014-08-02T07:10:00,2,20858040,188013
OK,54,37,844,54,2014-08-02T07:15:00,0,20858489,188013
OK,54,37,844,54,2014-08-02T07:20:00,0,20858938,188013
OK,54,37,844,54,2014-08-02T07:25:00,0,20859387,188013
OK,45,44,844,45,2014-08-02T07:30:00,1,20859836,188013
OK,55,36,844,55,2014-08-02T07:35:00,2,20860285,188013
OK,66,30,844,66,2014-08-02T07:40:00,0,20860734,188013
OK,62,32,844,62,2014-08-02T07:45:00,1,20861183,188013
OK,55,36,844,55,2014-08-02T07:50:00,2,20861632,188013
OK,49,41,844,49,2014-08-02T07:55:00,1,20862081,188013
OK,69,29,844,69,2014-08-02T08:00:00,2,20862530,188013
OK,67,30,844,67,2014-08-02T08:05:00,2,20862979,188013
OK,65,31,844,65,2014-08-02T08:10:00,4,20863428,188013
OK,65,31,844,65,2014-08-02T08:15:00,3,20863877,188013
OK,63,32,844,63,2014-08-02T08:20:00,0,20864326,188013
OK,69,29,844,69,2014-08-02T08:25:00,1,20864775,188013
OK,67,30,844,67,2014-08-02T08:30:00,1,20865224,188013
OK,62,32,844,62,2014-08-02T08:35:00,4,20865673,188013
OK,62,32,844,62,2014-08-02T08:40:00,3,20866122,188013
OK,68,29,844,68,2014-08-02T08:45:00,1,20866571,188013
OK,68,29,844,68,2014-08-02T08:50:00,1,20867020,188013
OK,68,29,844,68,2014-08-02T08:55:00,0,20867469,188013
OK,68,29,844,68,2014-08-02T09:00:00,0,20867918,188013
OK,107,18,844,107,2014-08-02T09:05:00,2,20868367,188013
OK,107,18,844,107,2014-08-02T09:10:00,2,20868816,188013
OK,52,38,844,52,2014-08-02T09:15:00,2,20869265,188013
OK,64,31,844,64,2014-08-02T09:20:00,4,20869714,188013
OK,75,26,844,75,2014-08-02T09:25:00,4,20870163,188013
OK,59,34,844,59,2014-08-02T09:30:00,3,20870612,188013
OK,33,61,844,33,2014-08-02T09:35:00,1,20871061,188013
OK,64,31,844,64,2014-08-02T09:40:00,1,20871510,188013
OK,64,31,844,64,2014-08-02T09:45:00,1,20871959,188013
OK,61,33,844,61,2014-08-02T09:50:00,3,20872408,188013
OK,61,33,844,61,2014-08-02T09:55:00,3,20872857,188013
OK,64,31,844,64,2014-08-02T10:00:00,0,20873306,188013
OK,58,34,844,58,2014-08-02T10:05:00,2,20873755,188013
OK,64,31,844,64,2014-08-02T10:10:00,3,20874204,188013
OK,120,16,844,120,2014-08-02T10:15:00,2,20874653,188013
OK,70,28,844,70,2014-08-02T10:20:00,2,20875102,188013
OK,71,28,844,71,2014-08-02T10:25:00,2,20875551,188013
OK,61,33,844,61,2014-08-02T10:30:00,4,20876000,188013
OK,63,32,844,63,2014-08-02T10:35:00,2,20876449,188013
OK,69,29,844,69,2014-08-02T10:40:00,5,20876898,188013
OK,72,28,844,72,2014-08-02T10:45:00,6,20877347,188013
OK,47,42,844,47,2014-08-02T10:50:00,1,20877796,188013
OK,72,28,844,72,2014-08-02T10:55:00,2,20878245,188013
OK,72,28,844,72,2014-08-02T11:00:00,3,20878694,188013
OK,55,36,844,55,2014-08-02T11:05:00,2,20879143,188013
OK,58,34,844,58,2014-08-02T11:10:00,4,20879592,188013
OK,60,33,844,60,2014-08-02T11:15:00,3,20880041,188013
OK,56,36,844,56,2014-08-02T11:20:00,0,20880490,188013
OK,62,32,844,62,2014-08-02T11:25:00,3,20880939,188013
OK,62,32,844,62,2014-08-02T11:30:00,4,20881388,188013
OK,54,37,844,54,2014-08-02T11:35:00,2,20881837,188013
OK,60,33,844,60,2014-08-02T11:40:00,5,20882286,188013
OK,60,33,844,60,2014-08-02T11:45:00,5,20882735,188013
OK,44,45,844,44,2014-08-02T11:50:00,1,20883184,188013
OK,82,24,844,82,2014-08-02T11:55:00,1,20883633,188013
OK,88,22,844,88,2014-08-02T12:00:00,2,20884082,188013
OK,94,21,844,94,2014-08-02T12:05:00,0,20884531,188013
OK,94,21,844,94,2014-08-02T12:10:00,0,20884980,188013
OK,51,39,844,51,2014-08-02T12:15:00,4,20885429,188013
OK,45,44,844,45,2014-08-02T12:20:00,3,20885878,188013
OK,59,34,844,59,2014-08-02T12:25:00,3,20886327,188013
OK,59,34,844,59,2014-08-02T12:30:00,4,20886776,188013
OK,68,29,844,68,2014-08-02T12:35:00,2,20887225,188013
OK,68,29,844,68,2014-08-02T12:40:00,3,20887674,188013
OK,67,30,844,67,2014-08-02T12:45:00,2,20888123,188013
OK,67,30,844,67,2014-08-02T12:50:00,3,20888572,188013
OK,60,33,844,60,2014-08-02T12:55:00,4,20889021,188013
OK,53,38,844,53,2014-08-02T13:00:00,1,20889470,188013
OK,53,38,844,53,2014-08-02T13:05:00,0,20889919,188013
OK,69,29,844,69,2014-08-02T13:10:00,1,20890368,188013
OK,69,29,844,69,2014-08-02T13:15:00,1,20890817,188013
OK,69,29,844,69,2014-08-02T13:20:00,0,20891266,188013
OK,69,29,844,69,2014-08-02T13:25:00,0,20891715,188013
OK,69,29,844,69,2014-08-02T13:30:00,0,20892164,188013
OK,61,33,844,61,2014-08-02T13:35:00,2,20892613,188013
OK,64,31,844,64,2014-08-02T13:40:00,2,20893062,188013
OK,89,22,844,89,2014-08-02T13:45:00,2,20893511,188013
OK,89,22,844,89,2014-08-02T13:50:00,2,20893960,188013
OK,88,22,844,88,2014-08-02T13:55:00,1,20894409,188013
OK,85,23,844,85,2014-08-02T14:00:00,3,20894858,188013
OK,85,23,844,85,2014-08-02T14:05:00,1,20895307,188013
OK,66,30,844,66,2014-08-02T14:10:00,1,20895756,188013
OK,57,35,844,57,2014-08-02T14:15:00,3,20896205,188013
OK,57,35,844,57,2014-08-02T14:20:00,3,20896654,188013
OK,67,30,844,67,2014-08-02T14:25:00,2,20897103,188013
OK,56,36,844,56,2014-08-02T14:30:00,3,20897552,188013
OK,56,36,844,56,2014-08-02T14:35:00,2,20898001,188013
OK,69,29,844,69,2014-08-02T14:40:00,1,20898450,188013
OK,69,29,844,69,2014-08-02T14:45:00,0,20898899,188013
OK,69,29,844,69,2014-08-02T14:50:00,0,20899348,188013
OK,69,29,844,69,2014-08-02T14:55:00,0,20899797,188013
OK,69,29,844,69,2014-08-02T15:00:00,0,20900246,188013
OK,69,29,844,69,2014-08-02T15:05:00,0,20900695,188013
OK,69,29,844,69,2014-08-02T15:10:00,0,20901144,188013
OK,52,38,844,52,2014-08-02T15:15:00,1,20901593,188013
OK,59,34,844,59,2014-08-02T15:20:00,3,20902042,188013
OK,61,33,844,61,2014-08-02T15:25:00,0,20902491,188013
OK,53,38,844,53,2014-08-02T15:30:00,2,20902940,188013
OK,51,39,844,51,2014-08-02T15:35:00,3,20903389,188013
OK,54,37,844,54,2014-08-02T15:40:00,4,20903838,188013
OK,54,37,844,54,2014-08-02T15:45:00,2,20904287,188013
OK,60,33,844,60,2014-08-02T15:50:00,4,20904736,188013
OK,60,33,844,60,2014-08-02T15:55:00,4,20905185,188013
OK,52,38,844,52,2014-08-02T16:00:00,1,20905634,188013
OK,49,41,844,49,2014-08-02T16:05:00,2,20906083,188013
OK,47,42,844,47,2014-08-02T16:10:00,1,20906532,188013
OK,60,33,844,60,2014-08-02T16:15:00,1,20906981,188013
OK,60,33,844,60,2014-08-02T16:20:00,1,20907430,188013
OK,66,30,844,66,2014-08-02T16:25:00,2,20907879,188013
OK,66,30,844,66,2014-08-02T16:30:00,0,20908328,188013
OK,66,30,844,66,2014-08-02T16:35:00,0,20908777,188013
OK,66,30,844,66,2014-08-02T16:40:00,0,20909226,188013
OK,66,30,844,66,2014-08-02T16:45:00,0,20909675,188013
OK,66,30,844,66,2014-08-02T16:50:00,0,20910124,188013
OK,66,30,844,66,2014-08-02T16:55:00,0,20910573,188013
OK,66,30,844,66,2014-08-02T17:00:00,0,20911022,188013
OK,66,30,844,66,2014-08-02T17:05:00,0,20911471,188013
OK,66,30,844,66,2014-08-02T17:10:00,0,20911920,188013
OK,66,30,844,66,2014-08-02T17:15:00,0,20912369,188013
OK,146,13,844,146,2014-08-02T17:20:00,1,20912818,188013
OK,146,13,844,146,2014-08-02T17:25:00,1,20913267,188013
OK,146,13,844,146,2014-08-02T17:30:00,0,20913716,188013
OK,146,13,844,146,2014-08-02T17:35:00,0,20914165,188013
OK,66,30,844,66,2014-08-02T17:40:00,1,20914614,188013
OK,64,31,844,64,2014-08-02T17:45:00,2,20915063,188013
OK,62,32,844,62,2014-08-02T17:50:00,1,20915512,188013
OK,62,32,844,62,2014-08-02T17:55:00,0,20915961,188013
OK,62,32,844,62,2014-08-02T18:00:00,0,20916410,188013
OK,69,29,844,69,2014-08-02T18:05:00,1,20916859,188013
OK,69,29,844,69,2014-08-02T18:10:00,3,20917308,188013
OK,68,29,844,68,2014-08-02T18:15:00,3,20917757,188013
OK,68,29,844,68,2014-08-02T18:20:00,2,20918206,188013
OK,68,29,844,68,2014-08-02T18:25:00,1,20918655,188013
OK,68,29,844,68,2014-08-02T18:30:00,0,20919104,188013
OK,64,31,844,64,2014-08-02T18:35:00,1,20919553,188013
OK,64,31,844,64,2014-08-02T18:40:00,1,20920002,188013
OK,64,31,844,64,2014-08-02T18:45:00,0,20920451,188013
OK,64,31,844,64,2014-08-02T18:50:00,0,20920900,188013
OK,64,31,844,64,2014-08-02T18:55:00,0,20921349,188013
OK,64,31,844,64,2014-08-02T19:00:00,0,20921798,188013
OK,64,31,844,64,2014-08-02T19:05:00,0,20922247,188013
OK,64,31,844,64,2014-08-02T19:10:00,0,20922696,188013
OK,67,30,844,67,2014-08-02T19:15:00,1,20923145,188013
OK,67,30,844,67,2014-08-02T19:20:00,1,20923594,188013
OK,67,30,844,67,2014-08-02T19:25:00,0,20924043,188013
OK,65,31,844,65,2014-08-02T19:30:00,2,20924492,188013
OK,62,32,844,62,2014-08-02T19:35:00,3,20924941,188013
OK,53,38,844,53,2014-08-02T19:40:00,1,20925390,188013
OK,53,38,844,53,2014-08-02T19:45:00,0,20925839,188013
OK,53,38,844,53,2014-08-02T19:50:00,0,20926288,188013
OK,53,38,844,53,2014-08-02T19:55:00,0,20926737,188013
OK,53,38,844,53,2014-08-02T20:00:00,0,20927186,188013
OK,53,38,844,53,2014-08-02T20:05:00,0,20927635,188013
OK,53,38,844,53,2014-08-02T20:10:00,0,20928084,188013
OK,53,38,844,53,2014-08-02T20:15:00,0,20928533,188013
OK,53,38,844,53,2014-08-02T20:20:00,0,20928982,188013
OK,53,38,844,53,2014-08-02T20:25:00,0,20929431,188013
OK,53,38,844,53,2014-08-02T20:30:00,0,20929880,188013
OK,53,38,844,53,2014-08-02T20:35:00,0,20930329,188013
OK,53,38,844,53,2014-08-02T20:40:00,0,20930778,188013
OK,53,38,844,53,2014-08-02T20:45:00,0,20931227,188013
OK,68,29,844,68,2014-08-02T20:50:00,1,20931676,188013
OK,68,29,844,68,2014-08-02T20:55:00,1,20932125,188013
OK,68,29,844,68,2014-08-02T21:00:00,0,20932574,188013
OK,68,29,844,68,2014-08-02T21:05:00,0,20933023,188013
OK,68,29,844,68,2014-08-02T21:10:00,0,20933472,188013
OK,68,29,844,68,2014-08-02T21:15:00,0,20933921,188013
OK,68,29,844,68,2014-08-02T21:20:00,0,20934370,188013
OK,68,29,844,68,2014-08-02T21:25:00,0,20934819,188013
OK,68,29,844,68,2014-08-02T21:30:00,0,20935268,188013
OK,68,29,844,68,2014-08-02T21:35:00,0,20935717,188013
OK,68,29,844,68,2014-08-02T21:40:00,0,20936166,188013
OK,68,29,844,68,2014-08-02T21:45:00,0,20936615,188013
OK,68,29,844,68,2014-08-02T21:50:00,0,20937064,188013
OK,49,41,844,49,2014-08-02T21:55:00,2,20937513,188013
OK,49,41,844,49,2014-08-02T22:00:00,0,20937962,188013
OK,64,31,844,64,2014-08-02T22:05:00,1,20938411,188013
OK,64,31,844,64,2014-08-02T22:10:00,1,20938860,188013
OK,64,31,844,64,2014-08-02T22:15:00,0,20939309,188013
OK,62,32,844,62,2014-08-02T22:20:00,1,20939758,188013
OK,62,32,844,62,2014-08-02T22:25:00,1,20940207,188013
OK,62,32,844,62,2014-08-02T22:30:00,0,20940656,188013
OK,62,32,844,62,2014-08-02T22:35:00,0,20941105,188013
OK,62,32,844,62,2014-08-02T22:40:00,0,20941554,188013
OK,62,32,844,62,2014-08-02T22:45:00,0,20942003,188013
OK,62,32,844,62,2014-08-02T22:50:00,0,20942452,188013
OK,62,32,844,62,2014-08-02T22:55:00,0,20942901,188013
OK,62,32,844,62,2014-08-02T23:00:00,0,20943350,188013
OK,57,35,844,57,2014-08-02T23:10:00,2,20943799,188013
OK,57,35,844,57,2014-08-02T23:15:00,2,20944248,188013
OK,79,25,844,79,2014-08-02T23:20:00,0,20944697,188013
OK,79,25,844,79,2014-08-02T23:25:00,0,20945146,188013
OK,79,25,844,79,2014-08-02T23:30:00,0,20945595,188013
OK,79,25,844,79,2014-08-02T23:35:00,0,20946044,188013
OK,79,25,844,79,2014-08-02T23:40:00,0,20946493,188013
OK,79,25,844,79,2014-08-02T23:45:00,0,20946942,188013
OK,79,25,844,79,2014-08-02T23:50:00,0,20947391,188013
OK,79,25,844,79,2014-08-02T23:55:00,0,20947840,188013
OK,79,25,844,79,2014-08-03T00:00:00,0,20948289,188013
OK,79,25,844,79,2014-08-03T00:05:00,0,20948738,188013
OK,79,25,844,79,2014-08-03T00:10:00,0,20949186,188013
OK,79,25,844,79,2014-08-03T00:15:00,0,20949635,188013
OK,79,25,844,79,2014-08-03T00:20:00,0,20950084,188013
OK,79,25,844,79,2014-08-03T00:25:00,0,20950533,188013
OK,79,25,844,79,2014-08-03T00:30:00,0,20950982,188013
OK,79,25,844,79,2014-08-03T00:35:00,0,20951431,188013
OK,79,25,844,79,2014-08-03T00:40:00,0,20951880,188013
OK,79,25,844,79,2014-08-03T00:45:00,0,20952329,188013
OK,79,25,844,79,2014-08-03T00:50:00,0,20952778,188013
OK,79,25,844,79,2014-08-03T00:55:00,0,20953227,188013
OK,79,25,844,79,2014-08-03T01:00:00,0,20953676,188013
OK,79,25,844,79,2014-08-03T01:05:00,0,20954125,188013
OK,79,25,844,79,2014-08-03T01:10:00,0,20954574,188013
OK,79,25,844,79,2014-08-03T01:15:00,0,20955023,188013
OK,79,25,844,79,2014-08-03T01:20:00,0,20955472,188013
OK,79,25,844,79,2014-08-03T01:25:00,0,20955921,188013
OK,79,25,844,79,2014-08-03T01:30:00,0,20956370,188013
OK,39,51,844,39,2014-08-03T01:35:00,1,20956819,188013
OK,39,51,844,39,2014-08-03T01:40:00,0,20957268,188013
OK,39,51,844,39,2014-08-03T01:45:00,0,20957717,188013
OK,39,51,844,39,2014-08-03T01:50:00,0,20958166,188013